Wind_Speed
10 12 13 15 16 17 18 19 20 17 15 9 7 8 8 8 9 11 12 11 12 11 9 9 9 10 12 17 21 21 19 17
10 11 12 13 16 17 20 20 21 19 18 16 8 12 9 9 10 13 13 13 12 11 10 11 10 10 12 15 17 18 24 27
9 10 11 14 15 17 18 20 20 19 16 15 12 12 7 7 11 13 14 15 14 12 12 12 11 12 12 12 12 12 15 19
7 9 11 13 15 17 17 18 18 19 18 15 14 10 11 9 14 13 16 15 14 13 12 12 12 12 13 15 13 13 13 14
5 6 9 11 11 12 14 15 17 18 18 16 16 14 14 14 14 15 16 14 15 15 14 13 13 14 13 16 15 15 14 17
5 6 7 10 12 13 13 14 14 16 16 16 15 14 14 15 16 18 16 15 14 15 15 16 16 16 15 16 19 17 17 19
5 5 7 10 12 12 12 14 15 16 16 16 16 16 17 17 18 18 18 18 16 15 16 18 16 16 16 18 19 20 19 19
3 4 6 9 11 12 13 15 15 16 16 16 15 16 16 16 17 17 20 19 18 19 21 19 19 19 19 21 22 22 21 21
4 4 6 8 10 12 13 14 15 16 16 16 15 15 15 15 16 17 17 18 19 20 21 21 19 19 19 19 21 23 21 23
5 4 6 8 10 11 12 13 14 15 15 16 16 15 16 17 16 17 17 17 19 20 20 21 20 20 19 19 20 21 21 24
5 4 5 7 8 9 10 12 13 13 14 15 15 16 16 16 16 17 18 19 19 20 21 21 21 21 21 20 20 19 21 23
7 5 4 6 6 7 8 10 11 13 14 15 16 17 17 17 17 18 19 19 20 20 20 21 22 23 22 22 22 23 23 23
8 7 5 4 5 5 7 8 10 12 12 13 15 15 17 18 18 19 19 19 19 19 20 21 23 24 23 23 22 21 22 24
9 8 6 4 5 7 8 9 9 10 10 12 13 14 15 16 17 18 19 20 20 20 20 21 23 25 25 25 22 22 22 21
9 9 7 6 6 7 8 9 10 10 10 11 12 15 15 15 15 16 18 19 20 21 22 23 25 26 25 25 22 24 25 24
8 8 8 6 6 6 8 9 10 10 11 12 13 13 14 15 16 17 17 18 20 21 23 26 30 31 33 29 24 26 28 32
8 8 9 7 7 8 7 9 9 9 10 11 11 12 14 16 16 16 17 18 20 23 25 27 32 35 36 32 28 27 30 33
9 9 10 9 8 8 8 8 8 10 10 11 13 13 15 16 15 15 17 18 19 22 28 30 32 38 37 33 29 26 31 34
10 12 12 10 9 9 9 9 9 10 11 12 13 14 14 15 16 16 17 18 19 22 25 28 28 35 37 35 28 28 29 33
Wind_Direction
61 52 47 43 38 35 33 31 28 25 24 18 22 22 22 14 12 4 359 353 353 345 327 324 324 299 280 264 258 248 244 238
84 66 57 51 42 36 31 28 24 26 23 17 7 1 358 357 356 353 352 349 346 345 330 325 320 302 294 278 275 282 257 251
92 77 63 53 45 37 31 28 24 24 20 13 1 344 345 342 344 346 345 344 344 342 334 322 315 306 299 292 286 297 285 256
106 80 59 47 38 31 28 23 20 17 14 9 6 0 349 347 341 339 337 337 336 334 328 321 316 312 305 298 289 279 279 275
102 68 47 32 28 24 21 18 14 11 9 8 8 359 348 341 335 331 331 330 329 328 326 324 320 310 303 297 293 282 273 274
94 60 42 38 29 23 20 17 15 10 5 1 359 354 343 336 334 332 328 328 324 325 323 321 317 308 300 294 291 284 274 271
107 79 54 44 33 25 20 16 16 12 10 3 359 352 343 342 339 335 330 326 324 324 323 319 313 309 306 297 290 285 280 270
124 80 58 42 34 28 23 19 17 12 8 4 0 355 345 343 340 336 330 328 328 324 323 317 315 309 299 293 288 283 278 274
135 87 61 44 36 29 26 21 18 14 8 2 2 357 347 345 342 335 333 331 328 324 321 317 314 306 301 295 289 284 283 278
147 100 60 44 37 34 27 23 23 20 10 4 4 360 356 351 347 344 341 336 331 328 327 325 320 314 309 303 293 288 283 278
152 107 68 52 43 37 33 32 26 20 18 12 9 4 1 358 355 351 346 343 339 338 336 334 330 325 320 313 305 297 287 282
146 120 84 67 55 42 39 34 27 22 18 15 12 12 6 7 6 1 356 351 349 346 342 340 339 335 332 324 317 307 298 291
142 135 120 88 64 44 44 35 30 22 15 15 12 12 9 9 11 7 4 1 357 356 355 353 349 346 341 335 328 321 313 299
147 145 127 100 73 52 40 36 32 26 18 16 14 12 13 7 8 6 7 7 7 8 7 5 359 356 352 351 350 346 339 325
160 142 125 104 77 57 51 41 38 32 28 24 19 17 13 9 9 10 12 12 12 15 15 15 13 10 6 3 3 3 360 355
156 129 123 112 87 72 59 50 45 42 40 34 25 22 19 20 20 17 15 16 17 21 22 22 19 19 16 16 15 15 12 7
145 131 124 109 94 76 69 59 53 53 48 38 29 28 25 25 23 20 19 20 21 23 26 25 24 20 15 18 23 19 18 15
149 136 126 118 98 87 80 74 69 63 54 44 37 33 32 28 25 26 22 22 22 25 26 24 24 20 18 17 21 25 23 17
143 138 133 125 115 99 95 89 78 69 57 48 42 39 39 33 33 30 26 25 26 27 29 26 26 21 19 19 22 23 25 24
Height
813 812 810 807 805 802 799 795 792 791 790 789 789 788 787 786 785 783 781 779 777 777 777 775 773 772 772 772 770 769 770 771
813 813 812 810 809 806 803 799 797 794 792 791 791 790 789 788 787 785 783 781 779 777 776 774 773 772 771 769 767 765 764 765
811 812 812 812 811 809 807 804 802 799 797 796 794 793 791 790 789 787 785 782 779 777 776 775 773 770 769 768 767 765 762 760
808 811 814 814 814 812 811 809 807 804 801 798 796 794 793 791 790 788 786 784 781 779 776 774 772 769 766 766 764 763 762 758
808 810 813 814 814 813 812 811 809 807 805 802 799 797 795 795 792 789 786 783 781 779 777 773 770 768 764 766 764 761 760 757
807 811 813 814 814 814 813 812 811 809 808 807 802 799 798 795 793 790 786 782 781 779 776 774 770 768 764 763 764 760 756 752
808 812 813 814 815 815 814 812 812 810 808 807 804 801 798 794 792 790 787 784 780 777 775 773 770 766 762 762 761 758 754 752
807 810 812 814 815 815 815 813 812 811 809 808 805 802 800 795 794 791 789 784 779 776 773 772 767 764 762 760 756 754 751 747
807 811 813 815 816 816 815 814 813 812 811 810 806 803 801 797 794 792 788 784 780 777 773 769 765 764 760 756 751 748 744 741
806 811 813 815 816 817 817 816 814 813 813 811 807 804 801 797 794 792 788 784 780 776 771 766 762 759 756 752 748 744 740 737
807 809 813 814 816 817 817 816 816 815 813 812 808 805 802 798 794 791 787 783 780 774 769 764 760 756 752 748 743 738 735 730
806 809 813 815 816 818 818 817 816 815 813 811 809 805 803 799 794 791 787 784 780 775 770 765 759 754 748 743 738 733 727 723
805 808 813 815 817 819 817 816 815 814 814 812 810 807 804 801 796 793 789 785 782 777 771 765 759 753 748 742 735 729 722 717
805 808 813 816 817 817 816 816 815 815 814 813 811 809 806 803 799 795 791 787 784 778 773 767 761 754 747 740 733 727 720 714
803 804 811 815 816 817 817 818 816 815 815 813 812 809 807 805 801 798 794 791 787 781 775 770 763 756 749 741 735 728 722 714
801 805 809 813 815 817 817 818 816 816 816 815 813 811 810 806 803 800 798 794 790 784 778 772 765 758 751 744 737 731 724 715
805 807 810 814 817 817 819 819 818 818 817 816 814 812 810 807 805 803 801 797 793 788 781 775 768 761 754 746 740 735 728 719
805 808 812 816 818 819 821 821 821 820 819 818 816 814 811 810 808 806 804 801 797 791 783 777 771 767 760 751 744 739 732 725
806 810 814 818 820 822 822 822 822 822 821 820 818 816 814 813 811 809 807 804 799 794 787 783 778 773 765 757 750 744 737 732